Year,Month,Day,Hour,Minute,Value (Times are PST for windgust in km/hr)
2006,02,04,00,00,9.60
2006,02,04,00,01,19.30
2006,02,04,00,02,16.10
2006,02,04,00,03,9.60
2006,02,04,00,04,16.10
2006,02,04,00,05,12.90
2006,02,04,00,06,16.10
2006,02,04,00,07,17.70
2006,02,04,00,08,11.30
2006,02,04,00,09,11.30
2006,02,04,00,10,11.30
2006,02,04,00,11,11.30
2006,02,04,00,12,9.60
2006,02,04,00,13,9.60
2006,02,04,00,14,8.10
2006,02,04,00,15,11.30
2006,02,04,00,16,11.30
2006,02,04,00,17,6.40
2006,02,04,00,18,11.30
2006,02,04,00,19,14.50
2006,02,04,00,20,14.50
2006,02,04,00,21,14.50
2006,02,04,00,22,16.10
2006,02,04,00,23,20.90
2006,02,04,00,24,20.90
2006,02,04,00,25,19.30
2006,02,04,00,26,19.30
2006,02,04,00,27,29.00
2006,02,04,00,28,25.70
2006,02,04,00,29,19.30
2006,02,04,00,30,16.10
2006,02,04,00,31,8.10
2006,02,04,00,32,14.50
2006,02,04,00,33,16.10
2006,02,04,00,34,33.80
2006,02,04,00,35,24.20
2006,02,04,00,36,24.20
2006,02,04,00,37,20.90
2006,02,04,00,38,12.90
2006,02,04,00,39,11.30
2006,02,04,00,40,17.70
2006,02,04,00,41,27.40
2006,02,04,00,42,17.70
2006,02,04,00,43,16.10
2006,02,04,00,44,20.90
2006,02,04,00,45,9.60
2006,02,04,00,46,11.30
2006,02,04,00,47,8.10
2006,02,04,00,48,9.60
2006,02,04,00,49,9.60
2006,02,04,00,50,4.80
2006,02,04,00,51,6.40
2006,02,04,00,52,9.60
2006,02,04,00,53,12.90
2006,02,04,00,54,9.60
2006,02,04,00,55,6.40
2006,02,04,00,56,8.10
2006,02,04,00,57,4.80
2006,02,04,00,58,4.80
2006,02,04,00,59,4.80
2006,02,04,01,00,3.20
2006,02,04,01,01,6.40
2006,02,04,01,02,3.20
2006,02,04,01,03,0.00
2006,02,04,01,04,0.00
2006,02,04,01,05,0.00
2006,02,04,01,06,0.00
2006,02,04,01,07,3.20
2006,02,04,01,08,1.60
2006,02,04,01,09,3.20
2006,02,04,01,10,3.20
2006,02,04,01,11,3.20
2006,02,04,01,12,1.60
2006,02,04,01,13,0.00
2006,02,04,01,14,0.00
2006,02,04,01,15,0.00
2006,02,04,01,16,0.00
2006,02,04,01,17,0.00
2006,02,04,01,18,0.00
2006,02,04,01,19,0.00
2006,02,04,01,20,0.00
2006,02,04,01,21,0.00
2006,02,04,01,22,0.00
2006,02,04,01,23,0.00
2006,02,04,01,24,0.00
2006,02,04,01,25,0.00
2006,02,04,01,26,0.00
2006,02,04,01,27,0.00
2006,02,04,01,28,0.00
2006,02,04,01,29,1.60
2006,02,04,01,30,4.80
2006,02,04,01,31,6.40
2006,02,04,01,32,6.40
2006,02,04,01,33,4.80
2006,02,04,01,34,6.40
2006,02,04,01,35,3.20
2006,02,04,01,36,1.60
2006,02,04,01,37,3.20
2006,02,04,01,38,3.20
2006,02,04,01,39,1.60
2006,02,04,01,40,0.00
2006,02,04,01,41,6.40
2006,02,04,01,42,8.10
2006,02,04,01,43,6.40
2006,02,04,01,44,6.40
2006,02,04,01,45,6.40
2006,02,04,01,46,1.60
2006,02,04,01,47,3.20
2006,02,04,01,48,4.80
2006,02,04,01,49,4.80
2006,02,04,01,50,3.20
2006,02,04,01,51,1.60
2006,02,04,01,52,0.00
2006,02,04,01,53,0.00
2006,02,04,01,54,1.60
2006,02,04,01,55,3.20
2006,02,04,01,56,4.80
2006,02,04,01,57,6.40
2006,02,04,01,58,6.40
2006,02,04,01,59,8.10
2006,02,04,02,00,6.40
2006,02,04,02,01,4.80
2006,02,04,02,02,3.20
2006,02,04,02,03,4.80
2006,02,04,02,04,4.80
2006,02,04,02,05,6.40
2006,02,04,02,06,8.10
2006,02,04,02,07,8.10
2006,02,04,02,08,6.40
2006,02,04,02,09,8.10
2006,02,04,02,10,4.80
2006,02,04,02,11,8.10
2006,02,04,02,12,6.40
2006,02,04,02,13,3.20
2006,02,04,02,14,3.20
2006,02,04,02,15,3.20
2006,02,04,02,16,4.80
2006,02,04,02,17,4.80
2006,02,04,02,18,3.20
2006,02,04,02,19,3.20
2006,02,04,02,20,6.40
2006,02,04,02,21,3.20
2006,02,04,02,22,3.20
2006,02,04,02,23,3.20
2006,02,04,02,24,3.20
2006,02,04,02,25,1.60
2006,02,04,02,26,1.60
2006,02,04,02,27,0.00
2006,02,04,02,28,0.00
2006,02,04,02,29,0.00
2006,02,04,02,30,0.00
2006,02,04,02,31,0.00
2006,02,04,02,32,0.00
2006,02,04,02,33,0.00
2006,02,04,02,34,1.60
2006,02,04,02,35,4.80
2006,02,04,02,36,6.40
2006,02,04,02,37,3.20
2006,02,04,02,38,3.20
2006,02,04,02,39,4.80
2006,02,04,02,40,4.80
2006,02,04,02,41,4.80
2006,02,04,02,42,6.40
2006,02,04,02,43,6.40
2006,02,04,02,44,4.80
2006,02,04,02,45,4.80
2006,02,04,02,46,4.80
2006,02,04,02,47,4.80
2006,02,04,02,48,4.80
2006,02,04,02,49,4.80
2006,02,04,02,50,4.80
2006,02,04,02,51,4.80
2006,02,04,02,52,4.80
2006,02,04,02,53,6.40
2006,02,04,02,54,3.20
2006,02,04,02,55,3.20
2006,02,04,02,56,3.20
2006,02,04,02,57,3.20
2006,02,04,02,58,1.60
2006,02,04,02,59,3.20
2006,02,04,03,00,6.40
2006,02,04,03,01,6.40
2006,02,04,03,02,4.80
2006,02,04,03,03,6.40
2006,02,04,03,04,8.10
2006,02,04,03,05,6.40
2006,02,04,03,06,4.80
2006,02,04,03,07,4.80
2006,02,04,03,08,4.80
2006,02,04,03,09,3.20
2006,02,04,03,10,1.60
2006,02,04,03,11,0.00
2006,02,04,03,12,0.00
2006,02,04,03,13,0.00
2006,02,04,03,14,0.00
2006,02,04,03,15,3.20
2006,02,04,03,16,3.20
2006,02,04,03,17,3.20
2006,02,04,03,18,0.00
2006,02,04,03,19,4.80
2006,02,04,03,20,4.80
2006,02,04,03,21,9.60
2006,02,04,03,22,11.30
2006,02,04,03,23,8.10
2006,02,04,03,24,8.10
2006,02,04,03,25,6.40
2006,02,04,03,26,4.80
2006,02,04,03,27,1.60
2006,02,04,03,28,0.00
2006,02,04,03,29,0.00
2006,02,04,03,30,8.10
2006,02,04,03,31,6.40
2006,02,04,03,32,4.80
2006,02,04,03,33,0.00
2006,02,04,03,34,1.60
2006,02,04,03,35,4.80
2006,02,04,03,36,8.10
2006,02,04,03,37,8.10
2006,02,04,03,38,6.40
2006,02,04,03,39,6.40
2006,02,04,03,40,16.10
2006,02,04,03,41,9.60
2006,02,04,03,42,11.30
2006,02,04,03,43,14.50
2006,02,04,03,44,16.10
2006,02,04,03,45,19.30
2006,02,04,03,46,17.70
2006,02,04,03,47,14.50
2006,02,04,03,48,19.30
2006,02,04,03,49,20.90
2006,02,04,03,50,14.50
2006,02,04,03,51,20.90
2006,02,04,03,52,17.70
2006,02,04,03,53,29.00
2006,02,04,03,54,22.50
2006,02,04,03,55,20.90
2006,02,04,03,56,32.20
2006,02,04,03,57,30.60
2006,02,04,03,58,20.90
2006,02,04,03,59,33.80
2006,02,04,04,00,27.40
2006,02,04,04,01,29.00
2006,02,04,04,02,37.00
2006,02,04,04,03,41.80
2006,02,04,04,04,27.40
2006,02,04,04,05,43.50
2006,02,04,04,06,40.20
2006,02,04,04,07,30.60
2006,02,04,04,08,30.60
2006,02,04,04,09,37.00
2006,02,04,04,10,22.50
2006,02,04,04,11,33.80
2006,02,04,04,12,32.20
2006,02,04,04,13,27.40
2006,02,04,04,14,22.50
2006,02,04,04,15,20.90
2006,02,04,04,16,22.50
2006,02,04,04,17,16.10
2006,02,04,04,18,32.20
2006,02,04,04,19,14.50
2006,02,04,04,20,17.70
2006,02,04,04,21,20.90
2006,02,04,04,22,17.70
2006,02,04,04,23,22.50
2006,02,04,04,24,20.90
2006,02,04,04,25,20.90
2006,02,04,04,26,29.00
2006,02,04,04,27,20.90
2006,02,04,04,28,24.20
2006,02,04,04,29,22.50
2006,02,04,04,30,29.00
2006,02,04,04,31,14.50
2006,02,04,04,32,24.20
2006,02,04,04,33,27.40
2006,02,04,04,34,25.70
2006,02,04,04,35,27.40
2006,02,04,04,36,32.20
2006,02,04,04,37,27.40
2006,02,04,04,38,25.70
2006,02,04,04,39,17.70
2006,02,04,04,40,24.20
2006,02,04,04,41,24.20
2006,02,04,04,42,19.30
2006,02,04,04,43,24.20
2006,02,04,04,44,27.40
2006,02,04,04,45,25.70
2006,02,04,04,46,22.50
2006,02,04,04,47,29.00
2006,02,04,04,48,24.20
2006,02,04,04,49,32.20
2006,02,04,04,50,25.70
2006,02,04,04,51,37.00
2006,02,04,04,52,41.80
2006,02,04,04,53,35.40
2006,02,04,04,54,29.00
2006,02,04,04,55,27.40
2006,02,04,04,56,32.20
2006,02,04,04,57,30.60
2006,02,04,04,58,30.60
2006,02,04,04,59,33.80
2006,02,04,05,00,38.60
2006,02,04,05,01,37.00
2006,02,04,05,02,33.80
2006,02,04,05,03,25.70
2006,02,04,05,04,30.60
2006,02,04,05,05,30.60
2006,02,04,05,06,45.10
2006,02,04,05,07,30.60
2006,02,04,05,08,30.60
2006,02,04,05,09,35.40
2006,02,04,05,10,37.00
2006,02,04,05,11,24.20
2006,02,04,05,12,24.20
2006,02,04,05,13,32.20
2006,02,04,05,14,20.90
2006,02,04,05,15,29.00
2006,02,04,05,16,24.20
2006,02,04,05,17,19.30
2006,02,04,05,18,9.60
2006,02,04,05,19,20.90
2006,02,04,05,20,25.70
2006,02,04,05,21,16.10
2006,02,04,05,22,11.30
2006,02,04,05,23,17.70
2006,02,04,05,24,32.20
2006,02,04,05,25,24.20
2006,02,04,05,26,12.90
2006,02,04,05,27,27.40
2006,02,04,05,28,27.40
2006,02,04,05,29,24.20
2006,02,04,05,30,25.70
2006,02,04,05,31,32.20
2006,02,04,05,32,25.70
2006,02,04,05,33,19.30
2006,02,04,05,34,19.30
2006,02,04,05,35,24.20
2006,02,04,05,36,29.00
2006,02,04,05,37,27.40
2006,02,04,05,38,24.20
2006,02,04,05,39,24.20
2006,02,04,05,40,37.00
2006,02,04,05,41,35.40
2006,02,04,05,42,25.70
2006,02,04,05,43,27.40
2006,02,04,05,44,35.40
2006,02,04,05,45,30.60
2006,02,04,05,46,27.40
2006,02,04,05,47,27.40
2006,02,04,05,48,32.20
2006,02,04,05,49,32.20
2006,02,04,05,50,27.40
2006,02,04,05,51,27.40
2006,02,04,05,52,20.90
2006,02,04,05,53,30.60
2006,02,04,05,54,27.40
2006,02,04,05,55,25.70
2006,02,04,05,56,30.60
2006,02,04,05,57,24.20
2006,02,04,05,58,27.40
2006,02,04,05,59,20.90
2006,02,04,06,00,29.00
2006,02,04,06,01,25.70
2006,02,04,06,02,25.70
2006,02,04,06,03,17.70
2006,02,04,06,04,20.90
2006,02,04,06,05,22.50
2006,02,04,06,06,24.20
2006,02,04,06,07,20.90
2006,02,04,06,08,19.30
2006,02,04,06,09,19.30
2006,02,04,06,10,30.60
2006,02,04,06,11,14.50
2006,02,04,06,12,22.50
2006,02,04,06,13,17.70
2006,02,04,06,14,25.70
2006,02,04,06,15,29.00
2006,02,04,06,16,29.00
2006,02,04,06,17,25.70
2006,02,04,06,18,20.90
2006,02,04,06,19,29.00
2006,02,04,06,20,37.00
2006,02,04,06,21,30.60
2006,02,04,06,22,27.40
2006,02,04,06,23,20.90
2006,02,04,06,24,24.20
2006,02,04,06,25,24.20
2006,02,04,06,26,25.70
2006,02,04,06,27,22.50
2006,02,04,06,28,19.30
2006,02,04,06,29,27.40
2006,02,04,06,30,32.20
2006,02,04,06,31,32.20
2006,02,04,06,32,11.30
2006,02,04,06,33,25.70
2006,02,04,06,34,20.90
2006,02,04,06,35,17.70
2006,02,04,06,36,24.20
2006,02,04,06,37,22.50
2006,02,04,06,38,22.50
2006,02,04,06,39,20.90
2006,02,04,06,40,32.20
2006,02,04,06,41,35.40
2006,02,04,06,42,33.80
2006,02,04,06,43,30.60
2006,02,04,06,44,22.50
2006,02,04,06,45,29.00
2006,02,04,06,46,27.40
2006,02,04,06,47,30.60
2006,02,04,06,48,30.60
2006,02,04,06,49,27.40
2006,02,04,06,50,20.90
2006,02,04,06,51,30.60
2006,02,04,06,52,27.40
2006,02,04,06,53,29.00
2006,02,04,06,54,37.00
2006,02,04,06,55,19.30
2006,02,04,06,56,30.60
2006,02,04,06,57,27.40
2006,02,04,06,58,24.20
2006,02,04,06,59,30.60
2006,02,04,07,00,29.00
2006,02,04,07,01,24.20
2006,02,04,07,02,20.90
2006,02,04,07,03,30.60
2006,02,04,07,04,25.70
2006,02,04,07,05,32.20
2006,02,04,07,06,22.50
2006,02,04,07,07,35.40
2006,02,04,07,08,29.00
2006,02,04,07,09,32.20
2006,02,04,07,10,38.60
2006,02,04,07,11,20.90
2006,02,04,07,12,25.70
2006,02,04,07,13,24.20
2006,02,04,07,14,41.80
2006,02,04,07,15,29.00
2006,02,04,07,16,37.00
2006,02,04,07,17,30.60
2006,02,04,07,18,32.20
2006,02,04,07,19,37.00
2006,02,04,07,20,30.60
2006,02,04,07,21,35.40
2006,02,04,07,22,29.00
2006,02,04,07,23,29.00
2006,02,04,07,24,30.60
2006,02,04,07,25,38.60
2006,02,04,07,26,25.70
2006,02,04,07,27,22.50
2006,02,04,07,28,32.20
2006,02,04,07,29,38.60
2006,02,04,07,30,38.60
2006,02,04,07,31,37.00
2006,02,04,07,32,35.40
2006,02,04,07,33,22.50
2006,02,04,07,34,24.20
2006,02,04,07,35,32.20
2006,02,04,07,36,20.90
2006,02,04,07,37,35.40
2006,02,04,07,38,38.60
2006,02,04,07,39,43.50
2006,02,04,07,40,33.80
2006,02,04,07,41,29.00
2006,02,04,07,42,19.30
2006,02,04,07,43,25.70
2006,02,04,07,44,25.70
2006,02,04,07,45,32.20
2006,02,04,07,46,40.20
2006,02,04,07,47,32.20
2006,02,04,07,48,29.00
2006,02,04,07,49,33.80
2006,02,04,07,50,32.20
2006,02,04,07,51,30.60
2006,02,04,07,52,32.20
2006,02,04,07,53,32.20
2006,02,04,07,54,32.20
2006,02,04,07,55,25.70
2006,02,04,07,56,22.50
2006,02,04,07,57,41.80
2006,02,04,07,58,30.60
2006,02,04,07,59,35.40
2006,02,04,08,00,27.40
2006,02,04,08,01,35.40
2006,02,04,08,02,33.80
2006,02,04,08,03,29.00
2006,02,04,08,04,33.80
2006,02,04,08,05,35.40
2006,02,04,08,06,24.20
2006,02,04,08,07,27.40
2006,02,04,08,08,25.70
2006,02,04,08,09,22.50
2006,02,04,08,10,29.00
2006,02,04,08,11,22.50
2006,02,04,08,12,24.20
2006,02,04,08,13,40.20
2006,02,04,08,14,40.20
2006,02,04,08,15,30.60
2006,02,04,08,16,25.70
2006,02,04,08,17,25.70
2006,02,04,08,18,46.70
2006,02,04,08,19,45.10
2006,02,04,08,20,25.70
2006,02,04,08,21,45.10
2006,02,04,08,22,33.80
2006,02,04,08,23,38.60
2006,02,04,08,24,24.20
2006,02,04,08,25,30.60
2006,02,04,08,26,35.40
2006,02,04,08,27,25.70
2006,02,04,08,28,29.00
2006,02,04,08,29,25.70
2006,02,04,08,30,35.40
2006,02,04,08,31,37.00
2006,02,04,08,32,37.00
2006,02,04,08,33,37.00
2006,02,04,08,34,32.20
2006,02,04,08,35,38.60
2006,02,04,08,36,35.40
2006,02,04,08,37,41.80
2006,02,04,08,38,40.20
2006,02,04,08,39,29.00
2006,02,04,08,40,35.40
2006,02,04,08,41,27.40
2006,02,04,08,42,25.70
2006,02,04,08,43,27.40
2006,02,04,08,44,35.40
2006,02,04,08,45,29.00
2006,02,04,08,46,30.60
2006,02,04,08,47,25.70
2006,02,04,08,48,22.50
2006,02,04,08,49,35.40
2006,02,04,08,50,35.40
2006,02,04,08,51,30.60
2006,02,04,08,52,27.40
2006,02,04,08,53,29.00
2006,02,04,08,54,35.40
2006,02,04,08,55,33.80
2006,02,04,08,56,38.60
2006,02,04,08,57,35.40
2006,02,04,08,58,27.40
2006,02,04,08,59,25.70
2006,02,04,09,00,33.80
2006,02,04,09,01,27.40
2006,02,04,09,02,25.70
2006,02,04,09,03,27.40
2006,02,04,09,04,24.20
2006,02,04,09,05,22.50
2006,02,04,09,06,25.70
2006,02,04,09,07,40.20
2006,02,04,09,08,35.40
2006,02,04,09,09,43.50
2006,02,04,09,10,45.10
2006,02,04,09,11,46.70
2006,02,04,09,12,46.70
2006,02,04,09,13,35.40
2006,02,04,09,14,32.20
2006,02,04,09,15,30.60
2006,02,04,09,16,29.00
2006,02,04,09,17,41.80
2006,02,04,09,18,29.00
2006,02,04,09,19,30.60
2006,02,04,09,20,35.40
2006,02,04,09,21,37.00
2006,02,04,09,22,33.80
2006,02,04,09,23,25.70
2006,02,04,09,24,30.60
2006,02,04,09,25,27.40
2006,02,04,09,26,27.40
2006,02,04,09,27,35.40
2006,02,04,09,28,20.90
2006,02,04,09,29,35.40
2006,02,04,09,30,30.60
2006,02,04,09,31,40.20
2006,02,04,09,32,40.20
2006,02,04,09,33,37.00
2006,02,04,09,34,53.10
2006,02,04,09,35,41.80
2006,02,04,09,36,40.20
2006,02,04,09,37,57.90
2006,02,04,09,38,37.00
2006,02,04,09,39,51.50
2006,02,04,09,40,46.70
2006,02,04,09,41,38.60
2006,02,04,09,42,30.60
2006,02,04,09,43,29.00
2006,02,04,09,44,51.50
2006,02,04,09,45,37.00
2006,02,04,09,46,40.20
2006,02,04,09,47,30.60
2006,02,04,09,48,35.40
2006,02,04,09,49,48.30
2006,02,04,09,50,29.00
2006,02,04,09,51,30.60
2006,02,04,09,52,38.60
2006,02,04,09,53,49.90
2006,02,04,09,54,40.20
2006,02,04,09,55,29.00
2006,02,04,09,56,41.80
2006,02,04,09,57,25.70
2006,02,04,09,58,38.60
2006,02,04,09,59,56.30
2006,02,04,10,00,46.70
2006,02,04,10,01,49.90
2006,02,04,10,02,35.40
2006,02,04,10,03,40.20
2006,02,04,10,04,41.80
2006,02,04,10,05,45.10
2006,02,04,10,06,45.10
2006,02,04,10,07,38.60
2006,02,04,10,08,41.80
2006,02,04,10,09,41.80
2006,02,04,10,10,38.60
2006,02,04,10,11,49.90
2006,02,04,10,12,20.90
2006,02,04,10,13,37.00
2006,02,04,10,14,48.30
2006,02,04,10,15,61.20
2006,02,04,10,16,46.70
2006,02,04,10,17,46.70
2006,02,04,10,18,35.40
2006,02,04,10,19,53.10
2006,02,04,10,20,53.10
2006,02,04,10,21,41.80
2006,02,04,10,22,35.40
2006,02,04,10,23,37.00
2006,02,04,10,24,48.30
2006,02,04,10,25,35.40
2006,02,04,10,26,32.20
2006,02,04,10,27,56.30
2006,02,04,10,28,57.90
2006,02,04,10,29,46.70
2006,02,04,10,30,64.40
2006,02,04,10,31,61.20
2006,02,04,10,32,56.30
2006,02,04,10,33,53.10
2006,02,04,10,34,49.90
2006,02,04,10,35,41.80
2006,02,04,10,36,41.80
2006,02,04,10,37,30.60
2006,02,04,10,38,45.10
2006,02,04,10,39,49.90
2006,02,04,10,40,61.20
2006,02,04,10,41,66.00
2006,02,04,10,42,57.90
2006,02,04,10,43,57.90
2006,02,04,10,44,69.20
2006,02,04,10,45,54.70
2006,02,04,10,46,53.10
2006,02,04,10,47,51.50
2006,02,04,10,48,40.20
2006,02,04,10,49,43.50
2006,02,04,10,50,45.10
2006,02,04,10,51,40.20
2006,02,04,10,52,56.30
2006,02,04,10,53,48.30
2006,02,04,10,54,41.80
2006,02,04,10,55,38.60
2006,02,04,10,56,46.70
2006,02,04,10,57,53.10
2006,02,04,10,58,43.50
2006,02,04,10,59,27.40
2006,02,04,11,00,35.40
2006,02,04,11,01,33.80
2006,02,04,11,02,38.60
2006,02,04,11,03,41.80
2006,02,04,11,04,48.30
2006,02,04,11,05,43.50
2006,02,04,11,06,48.30
2006,02,04,11,07,69.20
2006,02,04,11,08,48.30
2006,02,04,11,09,45.10
2006,02,04,11,10,33.80
2006,02,04,11,11,27.40
2006,02,04,11,12,35.40
2006,02,04,11,13,35.40
2006,02,04,11,14,45.10
2006,02,04,11,15,29.00
2006,02,04,11,16,27.40
2006,02,04,11,17,29.00
2006,02,04,11,18,57.90
2006,02,04,11,19,30.60
2006,02,04,11,20,38.60
2006,02,04,11,21,37.00
2006,02,04,11,22,46.70
2006,02,04,11,23,56.30
2006,02,04,11,24,72.40
2006,02,04,11,25,41.80
2006,02,04,11,26,33.80
2006,02,04,11,27,48.30
2006,02,04,11,28,53.10
2006,02,04,11,29,41.80
2006,02,04,11,30,49.90
2006,02,04,11,31,37.00
2006,02,04,11,32,53.10
2006,02,04,11,33,38.60
2006,02,04,11,34,61.20
2006,02,04,11,35,49.90
2006,02,04,11,36,41.80
2006,02,04,11,37,38.60
2006,02,04,11,38,64.40
2006,02,04,11,39,46.70
2006,02,04,11,40,45.10
2006,02,04,11,41,51.50
2006,02,04,11,42,48.30
2006,02,04,11,43,43.50
2006,02,04,11,44,57.90
2006,02,04,11,45,53.10
2006,02,04,11,46,51.50
2006,02,04,11,47,51.50
2006,02,04,11,48,46.70
2006,02,04,11,49,35.40
2006,02,04,11,50,38.60
2006,02,04,11,51,48.30
2006,02,04,11,52,56.30
2006,02,04,11,53,49.90
2006,02,04,11,54,37.00
2006,02,04,11,55,25.70
2006,02,04,11,56,38.60
2006,02,04,11,57,54.70
2006,02,04,11,58,37.00
2006,02,04,11,59,43.50
2006,02,04,12,00,67.60
2006,02,04,12,01,40.20
2006,02,04,12,02,51.50
2006,02,04,12,03,57.90
2006,02,04,12,04,57.90
2006,02,04,12,05,53.10
2006,02,04,12,06,46.70
2006,02,04,12,07,64.40
2006,02,04,12,08,69.20
2006,02,04,12,09,46.70
2006,02,04,12,10,40.20
2006,02,04,12,11,48.30
2006,02,04,12,13,53.10
2006,02,04,14,16,38.60
2006,02,04,14,17,45.10
2006,02,04,14,18,33.80
2006,02,04,14,19,35.40
2006,02,04,14,20,54.70
2006,02,04,14,21,54.70
2006,02,04,14,22,35.40
2006,02,04,14,23,46.70
2006,02,04,14,24,41.80
2006,02,04,14,25,62.70
2006,02,04,14,26,51.50
2006,02,04,14,27,49.90
2006,02,04,14,28,43.50
2006,02,04,14,29,35.40
2006,02,04,14,30,43.50
2006,02,04,14,31,53.10
2006,02,04,14,32,51.50
2006,02,04,14,33,56.30
2006,02,04,14,34,40.20
2006,02,04,14,35,37.00
2006,02,04,14,36,46.70
2006,02,04,14,37,45.10
2006,02,04,14,38,51.50
2006,02,04,14,39,56.30
2006,02,04,14,40,46.70
2006,02,04,14,41,48.30
2006,02,04,14,42,53.10
2006,02,04,14,43,46.70
2006,02,04,14,44,51.50
2006,02,04,14,45,51.50
2006,02,04,14,46,48.30
2006,02,04,14,47,46.70
2006,02,04,14,48,41.80
2006,02,04,14,49,45.10
2006,02,04,14,50,48.30
2006,02,04,14,51,49.90
2006,02,04,14,52,54.70
2006,02,04,14,53,35.40
2006,02,04,14,54,41.80
2006,02,04,14,55,48.30
2006,02,04,14,56,51.50
2006,02,04,14,57,48.30
2006,02,04,14,58,37.00
2006,02,04,14,59,43.50
2006,02,04,15,00,49.90
2006,02,04,15,01,54.70
2006,02,04,15,02,41.80
2006,02,04,15,03,48.30
2006,02,04,15,04,53.10
2006,02,04,15,05,45.10
2006,02,04,15,06,53.10
2006,02,04,15,07,56.30
2006,02,04,15,08,59.50
2006,02,04,15,09,53.10
2006,02,04,15,10,38.60
2006,02,04,15,11,41.80
2006,02,04,15,12,48.30
2006,02,04,15,13,49.90
2006,02,04,15,14,45.10
2006,02,04,15,15,57.90
2006,02,04,15,16,56.30
2006,02,04,15,17,43.50
2006,02,04,15,18,51.50
2006,02,04,15,19,53.10
2006,02,04,15,20,45.10
2006,02,04,15,21,51.50
2006,02,04,15,22,64.40
2006,02,04,15,23,51.50
2006,02,04,15,24,54.70
2006,02,04,15,25,45.10
2006,02,04,15,26,53.10
2006,02,04,15,27,53.10
2006,02,04,15,28,48.30
2006,02,04,15,29,46.70
2006,02,04,15,30,51.50
2006,02,04,15,31,45.10
2006,02,04,15,32,46.70
2006,02,04,15,33,64.40
2006,02,04,15,34,59.50
2006,02,04,15,35,45.10
2006,02,04,15,36,45.10
2006,02,04,15,37,53.10
2006,02,04,15,38,48.30
2006,02,04,15,39,48.30
2006,02,04,15,40,59.50
2006,02,04,15,41,53.10
2006,02,04,15,42,56.30
2006,02,04,15,43,49.90
2006,02,04,15,44,54.70
2006,02,04,15,45,38.60
2006,02,04,15,46,43.50
2006,02,04,15,47,57.90
2006,02,04,15,48,45.10
2006,02,04,15,49,57.90
2006,02,04,15,50,45.10
2006,02,04,15,51,30.60
2006,02,04,15,52,72.40
2006,02,04,15,53,54.70
2006,02,04,15,54,45.10
2006,02,04,15,55,51.50
2006,02,04,15,56,48.30
2006,02,04,15,57,48.30
2006,02,04,15,58,51.50
2006,02,04,15,59,51.50
2006,02,04,16,00,48.30
2006,02,04,16,01,49.90
2006,02,04,16,02,41.80
2006,02,04,16,03,61.20
2006,02,04,16,04,30.60
2006,02,04,16,05,45.10
2006,02,04,16,06,53.10
2006,02,04,16,07,41.80
2006,02,04,16,08,57.90
2006,02,04,16,09,49.90
2006,02,04,16,10,41.80
2006,02,04,16,11,43.50
2006,02,04,16,12,41.80
2006,02,04,16,13,43.50
2006,02,04,16,14,53.10
2006,02,04,16,15,53.10
2006,02,04,16,16,43.50
2006,02,04,16,17,46.70
2006,02,04,16,18,45.10
2006,02,04,16,19,57.90
2006,02,04,16,20,45.10
2006,02,04,16,21,45.10
2006,02,04,16,22,35.40
2006,02,04,16,23,49.90
2006,02,04,16,24,45.10
2006,02,04,16,25,51.50
2006,02,04,16,26,59.50
2006,02,04,16,27,41.80
2006,02,04,16,28,43.50
2006,02,04,16,29,51.50
2006,02,04,16,30,43.50
2006,02,04,16,31,41.80
2006,02,04,16,32,43.50
2006,02,04,16,33,46.70
2006,02,04,16,34,49.90
2006,02,04,16,35,53.10
2006,02,04,16,36,46.70
2006,02,04,16,37,43.50
2006,02,04,16,38,46.70
2006,02,04,16,39,24.20
2006,02,04,16,40,45.10
2006,02,04,16,41,32.20
2006,02,04,16,42,35.40
2006,02,04,16,43,49.90
2006,02,04,16,44,49.90
2006,02,04,16,45,51.50
2006,02,04,16,46,53.10
2006,02,04,16,47,51.50
2006,02,04,16,48,45.10
2006,02,04,16,49,35.40
2006,02,04,16,50,45.10
2006,02,04,16,51,40.20
2006,02,04,16,52,41.80
2006,02,04,16,53,30.60
2006,02,04,16,54,37.00
2006,02,04,16,55,45.10
2006,02,04,16,56,41.80
2006,02,04,16,57,61.20
2006,02,04,16,58,35.40
2006,02,04,16,59,35.40
2006,02,04,17,00,32.20
2006,02,04,17,01,35.40
2006,02,04,17,02,41.80
2006,02,04,17,03,27.40
2006,02,04,17,04,30.60
2006,02,04,17,05,43.50
2006,02,04,17,06,29.00
2006,02,04,17,07,46.70
2006,02,04,17,08,49.90
2006,02,04,17,09,40.20
2006,02,04,17,10,43.50
2006,02,04,17,11,43.50
2006,02,04,17,12,41.80
2006,02,04,17,13,37.00
2006,02,04,17,14,51.50
2006,02,04,17,15,38.60
2006,02,04,17,16,45.10
2006,02,04,17,17,43.50
2006,02,04,17,18,45.10
2006,02,04,17,19,46.70
2006,02,04,17,20,37.00
2006,02,04,17,21,37.00
2006,02,04,17,22,40.20
2006,02,04,17,23,38.60
2006,02,04,17,24,32.20
2006,02,04,17,25,33.80
2006,02,04,17,26,35.40
2006,02,04,17,27,33.80
2006,02,04,17,28,33.80
2006,02,04,17,29,29.00
2006,02,04,17,30,45.10
2006,02,04,17,31,38.60
2006,02,04,17,32,25.70
2006,02,04,17,33,29.00
2006,02,04,17,34,30.60
2006,02,04,17,35,41.80
2006,02,04,17,36,37.00
2006,02,04,17,37,29.00
2006,02,04,17,38,49.90
2006,02,04,17,39,35.40
2006,02,04,17,40,30.60
2006,02,04,17,41,38.60
2006,02,04,17,42,38.60
2006,02,04,17,43,41.80
2006,02,04,17,44,43.50
2006,02,04,17,45,24.20
2006,02,04,17,46,33.80
2006,02,04,17,47,33.80
2006,02,04,17,48,30.60
2006,02,04,17,49,24.20
2006,02,04,17,50,30.60
2006,02,04,17,51,30.60
2006,02,04,17,52,29.00
2006,02,04,17,53,29.00
2006,02,04,17,54,30.60
2006,02,04,17,55,37.00
2006,02,04,17,56,29.00
2006,02,04,17,57,29.00
2006,02,04,17,58,37.00
2006,02,04,17,59,41.80
2006,02,04,18,00,35.40
2006,02,04,18,01,35.40
2006,02,04,18,02,41.80
2006,02,04,18,03,25.70
2006,02,04,18,04,27.40
2006,02,04,18,05,40.20
2006,02,04,18,06,30.60
2006,02,04,18,07,33.80
2006,02,04,18,08,33.80
2006,02,04,18,09,30.60
2006,02,04,18,10,32.20
2006,02,04,18,11,38.60
2006,02,04,18,12,41.80
2006,02,04,18,13,37.00
2006,02,04,18,14,27.40
2006,02,04,18,15,20.90
2006,02,04,18,16,30.60
2006,02,04,18,17,32.20
2006,02,04,18,18,32.20
2006,02,04,18,19,37.00
2006,02,04,18,20,24.20
2006,02,04,18,21,43.50
2006,02,04,18,22,37.00
2006,02,04,18,23,38.60
2006,02,04,18,24,30.60
2006,02,04,18,25,37.00
2006,02,04,18,26,32.20
2006,02,04,18,27,35.40
2006,02,04,18,28,30.60
2006,02,04,18,29,32.20
2006,02,04,18,30,30.60
2006,02,04,18,31,19.30
2006,02,04,18,32,17.70
2006,02,04,18,33,20.90
2006,02,04,18,34,19.30
2006,02,04,18,35,30.60
2006,02,04,18,36,30.60
2006,02,04,18,37,33.80
2006,02,04,18,38,29.00
2006,02,04,18,39,27.40
2006,02,04,18,40,19.30
2006,02,04,18,41,25.70
2006,02,04,18,42,41.80
2006,02,04,18,43,25.70
2006,02,04,18,44,20.90
2006,02,04,18,45,11.30
2006,02,04,18,46,24.20
2006,02,04,18,47,22.50
2006,02,04,18,48,17.70
2006,02,04,18,49,17.70
2006,02,04,18,50,8.10
2006,02,04,18,51,16.10
2006,02,04,18,52,14.50
2006,02,04,18,53,24.20
2006,02,04,18,54,17.70
2006,02,04,18,55,22.50
2006,02,04,18,56,22.50
2006,02,04,18,57,14.50
2006,02,04,18,58,16.10
2006,02,04,18,59,9.60
2006,02,04,19,00,11.30
2006,02,04,19,01,19.30
2006,02,04,19,02,22.50
2006,02,04,19,03,9.60
2006,02,04,19,04,8.10
2006,02,04,19,05,12.90
2006,02,04,19,06,27.40
2006,02,04,19,07,30.60
2006,02,04,19,08,9.60
2006,02,04,19,09,11.30
2006,02,04,19,10,12.90
2006,02,04,19,11,16.10
2006,02,04,19,12,19.30
2006,02,04,19,13,19.30
2006,02,04,19,14,16.10
2006,02,04,19,15,9.60
2006,02,04,19,16,9.60
2006,02,04,19,17,6.40
2006,02,04,19,18,22.50
2006,02,04,19,19,20.90
2006,02,04,19,20,16.10
2006,02,04,19,21,8.10
2006,02,04,19,22,16.10
2006,02,04,19,23,16.10
2006,02,04,19,24,14.50
2006,02,04,19,25,6.40
2006,02,04,19,26,14.50
2006,02,04,19,27,11.30
2006,02,04,19,28,17.70
2006,02,04,19,29,6.40
2006,02,04,19,30,19.30